STARLINK-34388

Last updated on Thu Jul 03 2025 00:02:06 GMT+0000 (Coordinated Universal Time)

1 64294U 25123D 25183.58335648 .00055410 00000+0 89836-3 0 9990 2 64294 69.9998 120.1077 0003369 267.5040 304.3669 15.52480101 4967
UTC large
Height (km)
Speed (km/s)
/
Latitude / Longitude
Inclination (degrees)
Orbital Period (minutes)
Azimuth
Elevation
Range (km)
Doppler Factor

Next 0 passes for location: London (51.5072 / 0.1276)

Sorry there are no passes over London.